Temp
-6 -6 -6 -6 -6 -6 -6 -6 -6 -6 -6 -6 -6 -6 -6 -6 -6 -6 -6 -6 -6 -6 -6 -5 -5 -5 -5 -5 -5 -5 -5 -6 -6 -6 -6 -6 -6 -6 -6 -6 -6 -6
-6 -6 -6 -6 -6 -6 -6 -6 -6 -6 -6 -6 -6 -6 -6 -6 -5 -6 -6 -6 -6 -6 -6 -6 -5 -5 -5 -5 -5 -6 -6 -6 -6 -6 -6 -6 -6 -6 -6 -6 -6 -6
-6 -6 -6 -6 -6 -6 -6 -6 -6 -6 -6 -6 -6 -6 -6 -6 -6 -5 -5 -5 -5 -6 -6 -6 -6 -6 -6 -6 -6 -6 -6 -6 -6 -6 -6 -6 -6 -6 -6 -6 -6 -7
-5 -5 -6 -6 -6 -6 -6 -6 -6 -6 -6 -6 -6 -6 -6 -6 -6 -5 -5 -5 -5 -5 -5 -5 -6 -6 -6 -6 -6 -6 -6 -6 -6 -6 -6 -6 -6 -6 -6 -6 -6 -6
-5 -5 -6 -6 -6 -6 -6 -6 -6 -6 -6 -6 -6 -6 -6 -5 -5 -5 -5 -5 -5 -5 -5 -5 -5 -5 -5 -6 -6 -6 -6 -6 -6 -6 -6 -6 -6 -6 -6 -6 -6 -6
-5 -5 -5 -6 -6 -6 -6 -6 -6 -6 -6 -6 -6 -6 -6 -5 -5 -5 -5 -5 -5 -5 -5 -5 -5 -5 -5 -5 -5 -6 -6 -6 -6 -6 -6 -6 -6 -6 -6 -6 -6 -6
-5 -5 -5 -5 -5 -6 -6 -6 -6 -6 -6 -6 -6 -6 -6 -6 -6 -6 -6 -6 -5 -5 -5 -5 -5 -5 -5 -5 -5 -6 -6 -6 -6 -6 -6 -6 -6 -6 -6 -6 -6 -6
-6 -5 -5 -5 -5 -5 -6 -6 -6 -6 -6 -6 -6 -6 -6 -6 -6 -6 -6 -6 -6 -6 -6 -5 -5 -5 -6 -6 -6 -6 -6 -6 -6 -6 -6 -6 -6 -6 -6 -6 -6 -6
-6 -6 -5 -5 -5 -5 -5 -6 -6 -6 -6 -6 -6 -6 -6 -6 -6 -6 -6 -6 -6 -6 -6 -6 -6 -6 -6 -6 -6 -6 -6 -6 -6 -6 -6 -6 -6 -6 -6 -6 -6 -6
-6 -6 -6 -6 -6 -6 -5 -5 -5 -6 -6 -6 -6 -6 -6 -6 -6 -6 -6 -6 -6 -6 -6 -6 -6 -6 -6 -6 -6 -6 -6 -6 -6 -6 -6 -6 -6 -6 -6 -6 -6 -6
-6 -6 -6 -6 -6 -6 -6 -6 -5 -5 -6 -6 -6 -6 -6 -6 -6 -6 -6 -6 -6 -6 -6 -6 -6 -6 -6 -6 -6 -6 -6 -6 -6 -6 -6 -6 -6 -6 -6 -6 -6 -6
-6 -6 -6 -6 -6 -6 -6 -6 -6 -6 -6 -6 -6 -6 -6 -6 -6 -6 -6 -6 -6 -6 -6 -6 -6 -6 -6 -6 -6 -6 -6 -6 -6 -6 -6 -6 -6 -6 -6 -6 -6 -6
-6 -6 -6 -6 -6 -6 -6 -6 -6 -6 -6 -6 -6 -5 -6 -6 -6 -6 -6 -6 -6 -6 -6 -6 -6 -6 -6 -6 -6 -6 -6 -6 -6 -6 -6 -6 -6 -6 -6 -6 -6 -6
-6 -6 -6 -6 -6 -6 -6 -6 -6 -6 -5 -6 -6 -5 -5 -6 -6 -6 -6 -6 -6 -6 -6 -6 -6 -6 -6 -6 -6 -6 -6 -6 -6 -6 -6 -6 -6 -6 -6 -6 -6 -6
-6 -6 -6 -6 -6 -6 -6 -6 -6 -6 -6 -6 -6 -6 -5 -5 -6 -6 -6 -6 -6 -6 -6 -6 -6 -6 -6 -6 -6 -6 -6 -6 -6 -6 -6 -6 -6 -6 -6 -6 -6 -6
-6 -6 -6 -6 -6 -6 -6 -6 -6 -6 -6 -6 -6 -6 -6 -6 -6 -6 -6 -6 -6 -6 -6 -6 -6 -6 -6 -6 -6 -6 -6 -6 -6 -6 -6 -6 -6 -6 -6 -6 -6 -6
-6 -7 -6 -6 -6 -6 -6 -6 -6 -6 -6 -6 -6 -6 -6 -6 -6 -6 -6 -5 -6 -6 -6 -6 -6 -6 -6 -6 -6 -6 -6 -6 -6 -6 -6 -6 -6 -6 -6 -6 -6 -6
-6 -6 -6 -6 -6 -6 -6 -6 -6 -6 -7 -7 -6 -6 -7 -7 -6 -6 -6 -6 -6 -6 -6 -6 -6 -6 -6 -6 -6 -6 -6 -6 -6 -6 -6 -6 -6 -6 -6 -6 -6 -6
-7 -7 -7 -7 -6 -7 -7 -6 -6 -6 -6 -6 -7 -7 -7 -7 -6 -6 -6 -6 -6 -6 -6 -6 -6 -6 -6 -6 -6 -6 -6 -6 -7 -6 -6 -6 -6 -6 -6 -6 -7 -7
-7 -7 -7 -7 -7 -7 -7 -7 -6 -6 -6 -6 -6 -7 -7 -6 -6 -6 -6 -6 -6 -6 -6 -6 -6 -6 -6 -6 -6 -6 -6 -6 -6 -6 -6 -6 -6 -6 -7 -7 -7 -7
-7 -7 -7 -7 -7 -7 -7 -7 -6 -6 -6 -6 -6 -7 -7 -6 -6 -6 -6 -6 -6 -6 -6 -7 -7 -6 -6 -6 -6 -6 -6 -6 -6 -6 -6 -6 -6 -7 -7 -7 -7 -7
-7 -7 -7 -7 -7 -7 -7 -7 -7 -7 -7 -7 -7 -7 -7 -7 -7 -6 -6 -6 -6 -6 -6 -7 -7 -7 -7 -7 -6 -6 -6 -6 -6 -6 -6 -6 -6 -6 -6 -7 -7 -7
-7 -7 -7 -7 -7 -7 -7 -7 -7 -7 -7 -7 -7 -7 -7 -7 -7 -7 -7 -6 -6 -6 -7 -7 -7 -7 -7 -7 -7 -7 -6 -6 -6 -6 -6 -6 -6 -6 -6 -7 -7 -7
-8 -8 -8 -7 -7 -7 -7 -7 -7 -7 -7 -7 -7 -7 -7 -7 -7 -7 -7 -6 -6 -6 -7 -7 -7 -7 -7 -7 -7 -7 -6 -6 -7 -7 -7 -7 -7 -7 -7 -7 -7 -7
-8 -8 -8 -8 -8 -7 -7 -6 -7 -7 -7 -7 -7 -7 -7 -7 -7 -7 -6 -6 -7 -7 -7 -7 -7 -7 -7 -7 -7 -6 -6 -7 -7 -7 -7 -7 -7 -7 -7 -7 -7 -7
-8 -8 -8 -8 -8 -7 -7 -7 -7 -7 -7 -8 -8 -7 -7 -7 -7 -7 -6 -6 -7 -7 -7 -7 -7 -7 -7 -7 -7 -6 -6 -7 -7 -7 -7 -7 -7 -7 -7 -7 -7 -7
Height
5946 5947 5948 5949 5950 5951 5952 5953 5954 5954 5955 5956 5956 5957 5957 5958 5959 5960 5960 5961 5962 5963 5963 5964 5965 5966 5966 5967 5968 5968 5969 5970 5970 5970 5970 5971 5971 5971 5971 5971 5970 5971
5945 5947 5948 5949 5950 5951 5952 5952 5953 5954 5955 5956 5956 5957 5958 5958 5959 5960 5961 5961 5962 5963 5964 5964 5965 5966 5967 5967 5968 5969 5969 5970 5970 5970 5970 5970 5970 5970 5970 5969 5969 5969
5945 5946 5947 5949 5949 5950 5951 5952 5953 5953 5954 5955 5956 5957 5958 5958 5959 5960 5961 5961 5962 5963 5964 5964 5965 5966 5967 5967 5968 5968 5969 5969 5969 5969 5969 5969 5969 5969 5969 5969 5968 5968
5945 5946 5947 5948 5949 5950 5951 5952 5952 5953 5953 5954 5955 5956 5957 5958 5958 5959 5960 5961 5962 5963 5964 5964 5965 5966 5967 5967 5968 5968 5968 5968 5968 5969 5969 5968 5968 5968 5968 5968 5968 5968
5944 5945 5946 5947 5948 5949 5950 5951 5951 5952 5952 5953 5954 5955 5956 5957 5958 5958 5959 5960 5961 5962 5963 5964 5965 5965 5966 5967 5967 5967 5968 5968 5968 5968 5968 5967 5967 5967 5967 5967 5967 5967
5942 5943 5944 5946 5947 5948 5949 5950 5951 5951 5952 5953 5954 5954 5955 5956 5957 5958 5958 5959 5961 5961 5962 5963 5964 5964 5965 5965 5966 5966 5967 5967 5967 5967 5967 5967 5967 5966 5966 5966 5966 5966
5941 5942 5943 5944 5945 5946 5948 5949 5950 5951 5951 5952 5953 5954 5955 5955 5956 5957 5957 5958 5959 5960 5961 5962 5962 5963 5963 5964 5965 5965 5965 5966 5966 5966 5966 5966 5966 5966 5966 5965 5965 5965
5940 5941 5942 5943 5944 5945 5946 5947 5948 5950 5951 5951 5952 5953 5954 5955 5956 5956 5957 5957 5958 5959 5960 5960 5961 5962 5962 5963 5963 5964 5964 5965 5965 5965 5965 5965 5965 5965 5965 5965 5965 5965
5939 5940 5941 5941 5942 5943 5945 5946 5947 5948 5950 5950 5951 5952 5953 5954 5954 5955 5956 5957 5957 5958 5959 5959 5960 5961 5961 5962 5962 5963 5963 5964 5964 5964 5964 5964 5964 5964 5964 5964 5964 5964
5937 5938 5939 5940 5941 5942 5943 5945 5946 5947 5949 5950 5950 5951 5952 5952 5953 5954 5955 5955 5956 5957 5958 5958 5959 5960 5960 5961 5961 5962 5962 5963 5963 5963 5963 5963 5963 5963 5963 5963 5963 5963
5936 5936 5937 5938 5939 5940 5942 5943 5945 5946 5947 5948 5949 5950 5950 5951 5952 5952 5953 5954 5954 5955 5956 5957 5958 5959 5959 5959 5960 5960 5961 5961 5961 5962 5962 5962 5962 5962 5962 5962 5962 5962
5934 5935 5935 5936 5938 5939 5940 5942 5943 5944 5945 5946 5947 5948 5949 5949 5950 5951 5951 5952 5953 5954 5954 5955 5956 5957 5958 5958 5959 5959 5959 5960 5960 5960 5960 5960 5961 5961 5961 5961 5961 5961
5932 5933 5933 5935 5936 5937 5939 5940 5941 5942 5943 5944 5945 5945 5946 5947 5948 5949 5950 5951 5951 5952 5952 5953 5954 5955 5956 5956 5957 5957 5958 5958 5959 5959 5959 5959 5959 5959 5959 5959 5959 5960
5930 5930 5931 5933 5934 5936 5937 5937 5938 5939 5940 5941 5942 5943 5944 5945 5946 5946 5948 5948 5949 5950 5951 5952 5953 5953 5954 5954 5955 5955 5956 5957 5957 5957 5957 5958 5958 5958 5958 5958 5958 5958
5927 5929 5930 5932 5933 5935 5936 5936 5936 5937 5938 5939 5940 5941 5942 5943 5943 5944 5945 5946 5947 5948 5949 5950 5951 5951 5952 5952 5953 5953 5954 5954 5955 5955 5955 5956 5956 5956 5956 5956 5957 5957
5926 5928 5930 5931 5932 5933 5934 5934 5935 5936 5937 5937 5938 5938 5939 5940 5941 5942 5942 5944 5945 5946 5948 5949 5949 5949 5950 5950 5950 5951 5951 5952 5952 5953 5953 5953 5954 5954 5954 5954 5955 5955
5925 5926 5927 5928 5929 5929 5930 5931 5932 5934 5934 5935 5935 5936 5936 5937 5938 5939 5940 5941 5943 5945 5946 5947 5946 5947 5948 5948 5948 5948 5948 5949 5950 5950 5950 5951 5951 5951 5952 5952 5953 5954
5924 5925 5925 5925 5925 5925 5926 5927 5929 5930 5930 5931 5931 5932 5933 5935 5935 5936 5937 5939 5941 5943 5944 5944 5944 5945 5945 5945 5945 5946 5946 5946 5947 5947 5947 5948 5948 5949 5950 5950 5951 5952
5922 5922 5922 5922 5922 5923 5923 5924 5925 5927 5927 5927 5928 5929 5930 5931 5931 5932 5934 5936 5938 5939 5940 5940 5941 5941 5941 5942 5942 5943 5943 5943 5944 5944 5944 5945 5947 5947 5948 5948 5948 5948
5918 5918 5918 5917 5918 5920 5920 5921 5922 5923 5924 5925 5925 5926 5927 5927 5928 5929 5931 5932 5934 5935 5935 5936 5937 5937 5937 5938 5938 5939 5939 5940 5940 5940 5941 5943 5945 5945 5944 5945 5945 5945
5914 5914 5914 5914 5915 5916 5917 5918 5919 5920 5921 5922 5923 5924 5924 5924 5924 5926 5928 5929 5931 5932 5932 5933 5933 5934 5934 5934 5935 5935 5936 5936 5937 5937 5939 5941 5941 5940 5940 5941 5941 5941
5910 5911 5911 5911 5912 5913 5914 5916 5915 5916 5917 5918 5920 5921 5921 5921 5921 5923 5925 5926 5928 5929 5930 5931 5931 5931 5930 5931 5931 5931 5932 5933 5933 5935 5936 5937 5937 5937 5937 5937 5937 5937
5907 5909 5909 5909 5909 5910 5911 5911 5911 5911 5912 5914 5915 5917 5918 5918 5918 5919 5921 5923 5924 5925 5926 5927 5928 5927 5927 5927 5928 5928 5928 5929 5930 5931 5932 5933 5933 5933 5933 5933 5933 5933
5904 5906 5907 5907 5907 5907 5907 5907 5907 5907 5909 5910 5912 5913 5914 5915 5915 5916 5917 5919 5920 5921 5922 5923 5923 5924 5924 5923 5923 5924 5924 5925 5926 5927 5927 5927 5928 5928 5929 5929 5929 5929
5899 5902 5903 5903 5903 5903 5904 5904 5904 5904 5906 5907 5909 5910 5911 5911 5912 5913 5913 5914 5915 5917 5918 5918 5919 5919 5920 5920 5919 5919 5920 5921 5922 5922 5921 5922 5922 5923 5923 5924 5924 5925
5895 5897 5899 5900 5900 5900 5901 5901 5901 5902 5903 5904 5905 5907 5908 5909 5910 5910 5910 5910 5910 5912 5913 5913 5914 5914 5914 5915 5915 5915 5915 5916 5916 5916 5916 5916 5917 5917 5917 5918 5918 5919
Wind_Speed
7 7 7 8 8 8 9 8 9 9 8 8 9 9 9 9 10 11 11 12 11 11 12 12 12 12 12 11 10 9 8 7 5 4 3 2 2 2 2 3 3 4
7 7 7 8 8 8 9 9 9 9 9 8 8 8 9 9 9 9 10 10 11 11 11 11 11 10 10 9 8 7 6 5 3 2 1 0 1 2 3 3 3 4
7 7 7 8 8 9 9 9 10 10 9 9 8 8 8 8 8 8 8 8 9 9 9 9 9 9 8 7 6 5 4 3 2 1 2 2 3 3 4 4 4 4
8 8 8 8 8 8 9 10 10 10 10 10 10 9 8 8 7 7 7 7 7 7 7 7 7 7 7 6 5 4 4 3 3 3 4 4 4 5 5 5 5 4
9 9 8 8 8 8 8 9 10 10 10 10 10 10 9 9 8 7 7 7 7 7 7 7 7 7 6 6 6 5 5 5 5 5 5 5 5 6 6 5 5 5
10 9 9 9 9 8 8 8 9 9 9 9 9 9 10 10 9 9 8 8 8 8 8 8 8 7 7 7 7 7 7 7 7 7 7 7 7 7 7 6 6 5
11 10 10 10 9 9 8 8 8 8 9 9 9 9 9 9 10 10 10 9 9 9 9 9 9 9 9 8 8 8 8 8 8 8 8 8 8 8 8 7 7 7
11 11 10 10 10 9 9 9 8 8 8 9 9 10 9 9 10 10 10 10 10 10 10 10 10 10 10 9 9 9 9 9 9 9 9 8 8 9 8 8 8 8
12 11 11 11 10 10 10 10 9 9 9 9 10 10 10 10 10 10 10 10 10 11 11 11 11 11 11 10 10 10 10 10 10 10 9 8 8 8 9 9 9 9
14 14 13 12 12 11 11 11 10 10 10 10 10 10 10 10 10 10 11 11 10 11 11 11 11 11 11 11 11 11 11 10 10 11 10 10 9 9 10 10 10 9
15 15 15 15 14 13 12 12 11 11 11 11 10 10 10 10 10 11 11 11 11 11 12 12 12 12 12 12 11 11 12 12 11 11 11 11 11 11 11 11 11 11
16 16 17 16 16 15 14 14 13 13 12 12 12 12 12 11 11 11 11 11 11 12 13 13 13 13 12 12 12 12 13 13 13 13 13 12 12 12 12 13 12 12
17 17 17 17 16 16 16 16 15 15 14 14 15 15 14 14 13 13 12 12 13 13 13 13 13 13 13 13 14 14 14 14 14 14 14 14 13 13 13 13 13 13
19 19 18 17 17 16 16 16 16 16 16 16 17 17 16 16 16 15 15 14 15 15 14 14 14 13 14 14 15 15 15 15 15 15 15 15 15 15 15 15 14 14
22 21 20 18 17 16 16 17 17 17 17 17 18 19 19 18 18 18 17 17 17 17 16 15 15 15 15 16 16 16 16 16 17 17 17 17 17 17 17 17 16 16
23 21 20 18 18 18 18 19 19 18 17 18 18 19 20 20 20 20 20 20 19 19 17 17 17 17 18 18 18 18 18 18 18 18 18 19 19 19 19 19 18 17
22 21 21 21 20 21 22 21 21 20 20 20 20 20 21 21 21 21 21 21 20 19 18 19 20 20 19 19 20 20 20 20 20 20 20 21 21 20 20 20 19 18
21 21 21 22 22 23 24 24 23 22 23 23 23 23 23 22 22 22 21 20 20 19 19 21 22 22 21 21 22 22 22 22 22 22 22 23 22 22 21 21 20 19
21 21 23 24 24 24 24 25 25 25 26 26 26 25 24 25 25 25 23 22 20 19 20 22 23 23 23 23 24 24 25 24 25 25 26 25 24 22 22 23 22 22
24 24 25 26 25 24 25 27 27 26 27 28 27 26 26 27 27 26 25 24 23 22 23 24 25 25 25 25 26 26 27 27 27 28 28 27 25 25 25 26 26 25
25 25 25 25 25 24 25 27 28 28 28 28 27 27 27 27 27 26 25 25 24 23 23 24 24 26 27 27 28 28 29 29 29 29 28 27 27 28 29 29 29 29
24 24 24 24 24 23 23 24 28 31 30 29 28 27 27 28 28 28 26 25 25 24 24 24 24 25 26 26 27 28 29 30 30 30 29 29 29 30 30 30 31 31
23 23 23 24 24 24 22 22 25 28 29 28 28 27 27 27 29 30 29 27 27 26 27 26 25 25 27 28 28 29 29 30 31 31 31 31 31 32 32 32 32 32
24 23 21 22 22 22 22 22 22 23 25 26 27 27 27 28 30 31 31 29 28 28 28 28 27 27 28 30 31 31 32 32 32 33 34 34 34 34 34 33 33 33
25 22 20 20 21 22 23 24 24 23 23 24 25 25 25 26 27 28 29 30 30 30 29 29 29 29 29 30 32 33 33 33 32 34 35 37 37 37 37 36 35 34
26 24 22 21 21 22 24 25 25 24 24 25 25 24 23 23 23 24 26 28 30 30 30 30 30 30 31 32 33 34 34 33 34 34 35 36 36 38 39 39 38 37
Wind_Direction
155 162 169 172 167 160 156 151 145 141 137 132 128 126 127 130 129 130 133 137 139 142 144 146 145 145 145 144 145 146 146 143 137 126 114 94 61 43 26 15 16 16
155 163 170 173 175 175 171 164 157 151 148 145 142 139 138 136 134 135 138 139 141 144 148 149 149 149 150 151 153 153 150 150 150 145 144 322 329 333 338 345 352 355
163 168 172 177 181 183 182 177 171 164 160 158 157 156 151 147 146 146 145 144 146 149 151 153 155 157 159 162 167 169 168 181 204 244 279 296 307 314 322 328 330 330
171 172 175 182 185 188 189 186 182 175 173 172 168 168 166 162 162 160 156 157 161 163 164 166 168 170 175 180 189 200 209 226 247 265 281 293 304 309 313 317 317 313
179 177 180 185 187 193 195 192 190 185 184 184 180 178 178 175 176 177 177 178 181 185 187 190 194 196 200 205 212 224 234 245 258 268 279 290 296 298 302 304 305 304
189 187 189 190 190 194 196 198 200 195 194 195 194 193 190 186 186 188 190 195 201 205 206 207 212 215 219 225 231 240 250 258 267 276 284 290 289 289 291 289 285 283
198 199 199 200 199 197 195 200 206 203 202 203 204 206 204 200 199 197 197 202 209 217 221 222 224 226 230 236 240 246 255 262 270 278 285 290 289 287 287 282 279 277
208 210 209 208 209 205 200 204 208 208 210 211 210 211 212 212 211 209 207 209 213 220 226 230 234 236 239 244 248 252 258 263 268 273 279 284 287 287 287 284 282 282
214 217 217 216 216 214 211 211 213 213 215 219 218 218 217 217 220 220 219 219 222 226 230 233 237 241 244 248 253 257 260 262 266 268 270 272 273 276 278 278 279 281
217 219 221 221 221 221 219 219 220 220 221 224 227 227 226 226 228 231 230 229 231 236 239 241 243 245 247 250 253 256 258 259 262 266 267 266 265 266 267 266 267 272
218 220 222 223 225 224 223 225 226 225 226 228 232 235 237 237 237 240 242 240 239 242 246 249 252 252 253 255 256 255 256 257 261 265 266 266 268 270 270 269 268 271
218 220 222 223 226 226 226 228 229 229 231 232 234 237 240 243 244 246 248 247 245 246 247 250 255 258 259 261 262 262 262 263 263 264 264 266 267 269 272 274 275 277
220 221 223 223 225 227 229 231 233 233 234 235 237 238 238 242 245 245 246 249 249 248 247 248 250 256 258 259 261 264 267 268 267 266 266 268 269 269 269 272 273 276
222 223 224 223 224 226 229 234 236 236 238 239 241 242 241 242 243 243 244 246 248 248 249 249 250 253 255 255 257 260 263 266 266 266 266 268 270 271 270 270 271 273
225 228 229 230 231 231 232 236 237 238 240 243 246 247 247 246 245 246 247 245 247 249 248 249 251 252 252 253 255 256 257 259 261 264 265 267 270 272 272 273 273 275
229 232 235 238 243 244 243 244 245 245 244 245 248 251 251 250 249 249 248 247 248 251 251 251 252 253 254 255 256 256 257 257 258 260 262 264 266 269 272 274 274 277
232 234 236 236 239 242 244 245 246 249 250 248 249 251 253 255 254 253 253 253 254 257 258 257 258 258 259 258 257 257 259 261 261 260 260 261 262 264 266 270 274 277
238 241 242 241 240 242 244 244 242 242 246 247 246 246 248 252 255 255 256 258 261 263 263 262 262 262 261 260 259 260 262 264 265 265 264 262 263 264 266 269 272 273
242 244 246 246 246 247 249 249 247 243 242 244 245 245 246 246 247 249 251 252 255 257 259 260 261 260 259 258 259 260 262 262 263 265 265 265 268 270 270 270 270 268
240 241 243 245 247 248 250 252 251 247 244 244 244 246 248 249 248 247 248 249 249 248 250 253 255 257 258 258 259 260 260 261 261 262 264 267 271 271 269 268 268 267
240 241 242 245 246 247 250 251 250 248 248 248 247 247 249 253 254 252 251 251 251 249 249 251 253 256 258 259 261 262 263 264 264 264 266 267 267 267 267 266 266 266
238 241 243 244 246 250 255 254 249 247 248 249 249 249 249 252 255 255 254 255 256 255 253 252 253 255 258 259 261 263 265 266 267 268 268 267 265 264 265 266 266 266
241 243 245 245 246 251 257 256 249 247 249 251 251 249 248 250 253 256 256 255 255 256 255 253 253 256 260 263 265 267 268 269 270 271 270 268 266 264 263 263 264 265
248 248 251 251 249 248 251 252 251 251 254 256 256 253 251 251 253 255 257 256 254 254 256 257 257 258 261 265 267 269 270 271 272 272 271 269 267 264 262 261 261 262
252 251 251 252 251 251 253 254 255 255 255 258 259 259 258 257 257 257 258 258 256 256 259 261 262 262 262 264 267 269 270 271 271 272 272 271 269 266 262 259 258 260
250 251 251 251 251 254 256 258 258 257 258 260 261 261 261 261 260 258 257 258 259 260 261 262 264 264 264 265 266 268 270 271 271 271 270 270 270 270 267 263 258 257